Regional Weather Roundup
Issued by NWS

Home | Current Version | Previous Version | Graphics & Text | Print | Product List | Glossary On
Versions: 1 2 3 4 5 6 7 8 9 10 11 12 13 14 15 16 17 18 19 20 21 22 23 24 25 26 27 28 29 30 31 32 33 34 35 36 37 38 39 40 41 42 43 44 45 46 47 48 49 50
000
ASUS43 KMKX 210221
RWRWI

WISCONSIN REGIONAL WEATHER ROUNDUP
NATIONAL WEATHER SERVICE MILWAUKEE/SULLIVAN WI
900 PM CDT WED SEP 20 2017

NOTE: "FAIR" INDICATES FEW OR NO CLOUDS BELOW 12,000 FEET WITH NO
SIGNIFICANT WEATHER AND/OR OBSTRUCTIONS TO VISIBILITY.

WIZ001-002-006>008-014>016-023>028-210300-
NORTHWEST WISCONSIN

CITY           SKY/WX    TMP DP  RH WIND       PRES   REMARKS
SUPERIOR ARPT  CLEAR     52  48  86 SW3       29.88R
ASHLAND        CLEAR     56  52  86 SW5       29.89R
HAYWARD        CLEAR     55  52  89 CALM      29.90R
SIREN          CLEAR     53  50  89 CALM      29.90R
CUMBERLAND     CLEAR     55  52  88 N5        29.90R
RICE LAKE      CLEAR     55  52  88 CALM      29.91R
CHETEK         CLEAR     58  55  92 N9        29.89R
LADYSMITH      CLEAR     60  54  79 CALM      29.91R
EAU CLAIRE     CLEAR     61  55  81 NW5       29.87R
MENOMONIE      CLEAR     62  57  83 CALM      29.88R
NEW RICHMOND   CLEAR     58  49  74 NW3       29.90R
OSCEOLA        CLEAR     56  56 100 CALM      29.92R
$$

WIZ003>005-009-010-017-018-210300-
NORTH CENTRAL WISCONSIN

CITY           SKY/WX    TMP DP  RH WIND       PRES   REMARKS
MANITOWISH WTR FOG       58  58 100 CALM      29.91R VSB<1/4
ARBOR VITAE    FOG       64  63  97 E3        29.92R VSB 3/4
WOODRUFF       FOG       64  63  97 E3        29.92R VSB 3/4
RHINELANDER    FOG       64  64 100 NW6       29.90F VSB 1/4
EAGLE RIVER    CLOUDY    66  66 100 NW5       29.91R FOG
LAND O LAKES   CLOUDY    66  66 100 CALM      29.93R FOG
PHILLIPS       CLEAR     57  57 100 CALM      29.90R
TOMAHAWK         N/A     62  61  96 E3        29.91S FOG
MEDFORD        CLOUDY    60  59  97 E3        29.90R
MERRILL        NOT AVBL
$$

WIZ029-030-035-036-043>047-210300-
CENTRAL WISCONSIN

CITY           SKY/WX    TMP DP  RH WIND       PRES   REMARKS
WAUSAU         CLOUDY    69  66  90 NW7       29.86S
MOSINEE        PTCLDY    70  66  88 N7        29.89R
MARSHFIELD     CLOUDY    69  63  81 N7        29.87S
STEVENS POINT  CLOUDY    65  65 100 E3        29.88R FOG
WAUPACA        LGT RAIN  70  69  96 W3        29.85S
WAUTOMA        LGT RAIN  71  70  96 N3        29.85F
WISC RAPIDS    CLOUDY    70  68  93 N7        29.88R
CAMP DOUGLAS   MOCLDY    72  70  94 NW6       29.88R
$$

WIZ011>013-019>022-031-037>040-048>050-210300-
NORTHEAST WISCONSIN

CITY           SKY/WX    TMP DP  RH WIND       PRES   REMARKS
ANTIGO         CLOUDY    65  65 100 E3        29.89F FOG
SHAWANO        CLOUDY    71  67  87 S3        29.87S
OCONTO         CLOUDY    69  68  97 CALM      29.87R
STURGEON BAY   LGT RAIN  71  67  87 SW10      29.90
GREEN BAY      LGT RAIN  72  72 100 S9        29.87S
MANITOWOC      LGT RAIN  72  68  87 VRB5G18   29.89R
APPLETON       TSTM      70  70 100 VRB7      29.88R
CLINTONVILLE   NOT AVBL
OSHKOSH        TSTM      69  68  96 NE26G32   29.93R VSB 3/4
$$

WIZ032>034-041-042-053>061-210300-
SOUTHWEST WISCONSIN

CITY           SKY/WX    TMP DP  RH WIND       PRES   REMARKS
LA CROSSE      CLEAR     70  63  78 N3          N/A
SPARTA         CLOUDY    67  66  95 SE3       29.88R
VIROQUA        CLOUDY    68  67  98 N5        29.88R
BOSCOBEL       MOCLDY    75  71  87 NW3       29.83S
PRAIRIE DU CHI CLOUDY    73  70  89 NW6       29.83S
PLATTEVILLE    CLOUDY    74  73  94 S9        29.86R
$$

WIZ056-057-062-063-064-067-068-210300-
SOUTH CENTRAL WISCONSIN

CITY           SKY/WX    TMP DP  RH WIND       PRES   REMARKS
REEDSBURG      CLOUDY    70  70 100 SE6       29.87R
BARABOO/DELLS  CLOUDY    71  68  91 NW6       29.86R THUNDER
LONE ROCK      CLOUDY    75  72  90 CALM      29.83R
MINERAL POINT  CLOUDY    75  75 100 SW5       29.87R
MADISON        TSTM      75  68  78 S9        29.83R
MIDDLETON      CLOUDY    76  69  78 S7        29.85R
WATERTOWN      CLOUDY    80  68  67 S9        29.83R HX  82
MONROE         CLOUDY    79  68  69 SW8       29.87R THUNDER HX  81
JANESVILLE     MOCLDY    84  64  51 S9        29.82  HX  86
$$

WIZ051-052-058>065-066-070>072-210300-
SOUTHEAST WISCONSIN

CITY           SKY/WX    TMP DP  RH WIND       PRES   REMARKS
MILWAUKEE      CLOUDY    77  69  76 S3        29.85R
WAUKESHA       CLEAR     77  64  65 S7        29.86R
MILWAUKEE/TIMM CLEAR     79  64  61 SE7       29.85R HX  81
RACINE         CLEAR     73  68  84 S3        29.87R
BURLINGTON     CLEAR     71  67  88 CALM      29.87R
KENOSHA        CLEAR     78  67  68 S3        29.87R HX  80
FOND DU LAC    TSTM      69  66  90 N24G33    29.92R VSB 1
SHEBOYGAN      CLOUDY    71  69  93 NW9       29.88R
WEST BEND        N/A     72  68  88 CALM      29.85S
JUNEAU         CLOUDY    79  68  69 S7        29.85R HX  81
$$

LSZ147-162-210300-
LAKE SUPERIOR

STATION/POSITION TIME  TEMP    WIND        PRES    WAVE
                       AIR SEA DIR/SP/G            HT/PER
                 (UTC) (F)     (DEG/KT/KT) (MB)    (FT/S)
W MID LAKE BUOY  0150   60 55  270/  8/ 10 1010.6R   2/ 5
DEVILS ISLAND    0200   64     290/ 12/ 13 1011.5R
SAXON HARBOR     0130   62     190/  3/  4 1010.8R
$$

LMZ867-665-643>646-210300-
LAKE MICHIGAN

STATION/POSITION TIME  TEMP    WIND        PRES    WAVE
                       AIR SEA DIR/SP/G            HT/PER
                 (UTC) (F)     (DEG/KT/KT) (MB)    (FT/S)
S GREEN BAY BUOY 0200   70 66  180/  8/ 12 1011.7
N MID LAKE BUOY  0150   68 65  130/ 10/ 12 1010.8F   3/ 5
NORTHPORT PIER   0140   67     140/  6/ 10 1009.8F
KEWAUNEE LAKESHO 0154   66     210/  2/  5 1010.7R
SHEBOYGAN LAKESH 0200   67     160/  6/  7 1010.5R
PORT WASHINGTON  0200   70     190/  3/ 20 1011.5
ATWATER BUOY     0109   69 63  150/  6/  8 1010.9R
MILWAUKEE LAKESH 0200   70     150/  7/  7   N/A
S MID LAKE BUOY  0150   73 69  150/ 12/ 14 1011.1R   1/ 3
KENOSHA   LAKESH 0200   73     170/  8/ 10 1010.8
$$

TC  - TEMPERATURE IN CELSIUS
VSB - VISIBILITY IN STATUTE MILES
WCI - WIND CHILL INDEX
HX  - HEAT INDEX





USA.gov is the U.S. government's official web portal to all federal, state and local government web resources and services.